This demonstration page uses our WeatherBlox Daily Observations layout. Learn more.

Left ArrowRight Arrow

36.17497, -115.13722

Hourly Observations for September 9, 2016

Temp ( °F °C ) Dew Point ( °F °C ) Humidity (%) Winds ( mph kmh ) Pressure ( in mb ) Visibility ( mi km ) Precip ( " mm )
12:53 am 00:53 Clear 81 27.2 38 3.3 21 21 Calm 29.9 1013 10 16.0934 0 0
1:53 am 01:53 Clear 79 26.1 41 5 26 26 Calm 29.9 1013 10 16.0934 0 0
2:53 am 02:53 Clear 77 25 41 5 28 28 NNW 3 6 29.91 1013 10 16.0934 0 0
3:53 am 03:53 Clear 77 25 37 2.8 24 24 N 7 11 29.91 1013 10 16.0934 0 0
4:53 am 04:53 Clear 76 24.4 37 2.8 24 24 Calm 29.92 1013 10 16.0934 0 0
5:53 am 05:53 Clear 77 25 36 2.2 23 23 Calm 29.93 1014 10 16.0934 0 0
6:53 am 06:53 Sunny 74 23.3 36 2.2 25 25 NW 8 13 29.96 1014 10 16.0934 0 0
7:53 am 07:53 Sunny 81 27.2 38 3.3 21 21 NNW 7 11 29.97 1015 10 16.0934 0 0
8:53 am 08:53 Sunny 84 28.9 48 8.9 29 29 NE 6 9 29.98 1015 10 16.0934 0 0
9:53 am 09:53 Sunny 87 30.6 48 8.9 26 26 E 7 11 29.98 1015 10 16.0934 0 0
10:53 am 10:53 Sunny 91 32.8 48 8.9 23 23 E 7 11 29.98 1015 10 16.0934 0 0
11:53 am 11:53 Sunny 92 33.3 46 7.8 21 21 E 6 9 29.97 1015 10 16.0934 0 0
12:53 pm 12:53 Sunny 94 34.4 45 7.2 18 18 SSE 7 11 29.95 1014 10 16.0934 0 0
1:53 pm 13:53 Sunny 97 36.1 41 5 14 14 VRB 3 6 29.93 1014 10 16.0934 0 0
2:53 pm 14:53 Sunny 98 36.7 41 5 14 14 undefined N/A 29.91 1013 10 16.0934 0 0
3:53 pm 15:53 Sunny 98 36.7 39 3.9 13 13 VRB 5 7 29.9 1013 10 16.0934 0 0
4:53 pm 16:53 Sunny 99 37.2 39 3.9 12 12 E 3 6 29.89 1012 10 16.0934 0 0
5:53 pm 17:53 Sunny 98 36.7 39 3.9 13 13 Calm 29.88 1012 10 16.0934 0 0
6:53 pm 18:53 Sunny 96 35.6 38 3.3 13 13 Calm 29.89 1012 10 16.0934 0 0
7:53 pm 19:53 Clear 94 34.4 40 4.4 15 15 Calm 29.9 1013 10 16.0934 0 0
8:53 pm 20:53 Clear 91 32.8 42 5.6 18 18 WNW 5 7 29.91 1013 10 16.0934 0 0
9:53 pm 21:53 Clear 87 30.6 43 6.1 21 21 NW 8 13 29.92 1013 10 16.0934 0 0
10:53 pm 22:53 Clear 84 28.9 41 5 22 22 Calm 29.93 1014 10 16.0934 0 0
11:53 pm 23:53 Clear 85 29.4 38 3.3 19 19 W 3 6 29.94 1014 10 16.0934 0 0

Powered by AerisWeather